owner,sensor,date,latitude,longitude,sea_surface_height_above_sea_level,qcFlag 
TCOON,ioos:station:TCOON:009:1,2017-11-01T00:18:00Z,27.8398,-97.0727,1.655,1111122 
TCOON,ioos:station:TCOON:009:1,2017-11-01T01:18:00Z,27.8398,-97.0727,1.673,1111122 
TCOON,ioos:station:TCOON:009:1,2017-11-01T02:18:00Z,27.8398,-97.0727,1.686,1111122 
TCOON,ioos:station:TCOON:009:1,2017-11-01T03:24:00Z,27.8398,-97.0727,1.706,1111122 
TCOON,ioos:station:TCOON:009:1,2017-11-01T04:18:00Z,27.8398,-97.0727,1.742,1111122 
TCOON,ioos:station:TCOON:009:1,2017-11-01T05:18:00Z,27.8398,-97.0727,1.775,1111122 
TCOON,ioos:station:TCOON:009:1,2017-11-01T06:18:00Z,27.8398,-97.0727,1.769,1111122 
TCOON,ioos:station:TCOON:009:1,2017-11-01T07:18:00Z,27.8398,-97.0727,1.765,1111122 
TCOON,ioos:station:TCOON:009:1,2017-11-01T08:18:00Z,27.8398,-97.0727,1.755,1111122 
TCOON,ioos:station:TCOON:009:1,2017-11-01T09:18:00Z,27.8398,-97.0727,1.744,1111122 
TCOON,ioos:station:TCOON:009:1,2017-11-01T10:18:00Z,27.8398,-97.0727,1.726,1111122 
TCOON,ioos:station:TCOON:009:1,2017-11-01T11:18:00Z,27.8398,-97.0727,1.698,1111122 
TCOON,ioos:station:TCOON:009:1,2017-11-01T12:18:00Z,27.8398,-97.0727,1.686,1111122 
TCOON,ioos:station:TCOON:009:1,2017-11-01T13:18:00Z,27.8398,-97.0727,1.666,1111122 
TCOON,ioos:station:TCOON:009:1,2017-11-01T14:18:00Z,27.8398,-97.0727,1.684,1111122 
TCOON,ioos:station:TCOON:009:1,2017-11-01T15:18:00Z,27.8398,-97.0727,1.715,1111122 
TCOON,ioos:station:TCOON:009:1,2017-11-01T16:18:00Z,27.8398,-97.0727,1.753,1111122 
TCOON,ioos:station:TCOON:009:1,2017-11-01T17:18:00Z,27.8398,-97.0727,1.783,1111122 
TCOON,ioos:station:TCOON:009:1,2017-11-01T18:18:00Z,27.8398,-97.0727,1.798,1111122 
TCOON,ioos:station:TCOON:009:1,2017-11-01T19:18:00Z,27.8398,-97.0727,1.787,1111122 
TCOON,ioos:station:TCOON:009:1,2017-11-01T20:18:00Z,27.8398,-97.0727,1.779,1111122 
TCOON,ioos:station:TCOON:009:1,2017-11-01T21:18:00Z,27.8398,-97.0727,1.78,1111122 
TCOON,ioos:station:TCOON:009:1,2017-11-01T22:18:00Z,27.8398,-97.0727,1.768,1111122 
TCOON,ioos:station:TCOON:009:1,2017-11-01T23:18:00Z,27.8398,-97.0727,1.77,1111122 
TCOON,ioos:station:TCOON:009:1,2017-11-02T00:18:00Z,27.8398,-97.0727,1.731,1111122 
TCOON,ioos:station:TCOON:009:1,2017-11-02T01:18:00Z,27.8398,-97.0727,1.707,1111122 
TCOON,ioos:station:TCOON:009:1,2017-11-02T02:18:00Z,27.8398,-97.0727,1.742,1111122 
TCOON,ioos:station:TCOON:009:1,2017-11-02T03:18:00Z,27.8398,-97.0727,1.735,1111122 
TCOON,ioos:station:TCOON:009:1,2017-11-02T04:18:00Z,27.8398,-97.0727,1.753,1111122 
TCOON,ioos:station:TCOON:009:1,2017-11-02T05:18:00Z,27.8398,-97.0727,1.783,1111122 
TCOON,ioos:station:TCOON:009:1,2017-11-02T06:18:00Z,27.8398,-97.0727,1.793,1111122 
TCOON,ioos:station:TCOON:009:1,2017-11-02T07:18:00Z,27.8398,-97.0727,1.771,1111122 
TCOON,ioos:station:TCOON:009:1,2017-11-02T08:18:00Z,27.8398,-97.0727,1.759,1111122 
TCOON,ioos:station:TCOON:009:1,2017-11-02T09:18:00Z,27.8398,-97.0727,1.75,1111122 
TCOON,ioos:station:TCOON:009:1,2017-11-02T10:18:00Z,27.8398,-97.0727,1.698,1111122 
TCOON,ioos:station:TCOON:009:1,2017-11-02T11:18:00Z,27.8398,-97.0727,1.667,1111122 
TCOON,ioos:station:TCOON:009:1,2017-11-02T12:18:00Z,27.8398,-97.0727,1.622,1111122 
TCOON,ioos:station:TCOON:009:1,2017-11-02T13:18:00Z,27.8398,-97.0727,1.621,1111122 
TCOON,ioos:station:TCOON:009:1,2017-11-02T14:18:00Z,27.8398,-97.0727,1.621,1111122 
TCOON,ioos:station:TCOON:009:1,2017-11-02T15:18:00Z,27.8398,-97.0727,1.579,1111122 
TCOON,ioos:station:TCOON:009:1,2017-11-02T16:18:00Z,27.8398,-97.0727,1.701,1111122 
TCOON,ioos:station:TCOON:009:1,2017-11-02T17:18:00Z,27.8398,-97.0727,1.732,1111122 
TCOON,ioos:station:TCOON:009:1,2017-11-02T18:18:00Z,27.8398,-97.0727,1.757,1111122 
TCOON,ioos:station:TCOON:009:1,2017-11-02T19:18:00Z,27.8398,-97.0727,1.782,1111122 
TCOON,ioos:station:TCOON:009:1,2017-11-02T20:18:00Z,27.8398,-97.0727,1.791,1111122 
TCOON,ioos:station:TCOON:009:1,2017-11-02T21:18:00Z,27.8398,-97.0727,1.764,1111122 
TCOON,ioos:station:TCOON:009:1,2017-11-02T22:18:00Z,27.8398,-97.0727,1.736,1111122 
TCOON,ioos:station:TCOON:009:1,2017-11-02T23:18:00Z,27.8398,-97.0727,1.735,1111122 
TCOON,ioos:station:TCOON:009:1,2017-11-03T00:18:00Z,27.8398,-97.0727,1.725,1111122 
TCOON,ioos:station:TCOON:009:1,2017-11-03T01:18:00Z,27.8398,-97.0727,1.709,1111122 
TCOON,ioos:station:TCOON:009:1,2017-11-03T02:18:00Z,27.8398,-97.0727,1.699,1111122 
TCOON,ioos:station:TCOON:009:1,2017-11-03T03:18:00Z,27.8398,-97.0727,1.62,1111122 
TCOON,ioos:station:TCOON:009:1,2017-11-03T04:24:00Z,27.8398,-97.0727,1.678,1111122 
TCOON,ioos:station:TCOON:009:1,2017-11-03T05:18:00Z,27.8398,-97.0727,1.715,1111122 
TCOON,ioos:station:TCOON:009:1,2017-11-03T06:18:00Z,27.8398,-97.0727,1.724,1111122 
TCOON,ioos:station:TCOON:009:1,2017-11-03T07:18:00Z,27.8398,-97.0727,1.755,1111122 
TCOON,ioos:station:TCOON:009:1,2017-11-03T08:18:00Z,27.8398,-97.0727,1.733,1111122 
TCOON,ioos:station:TCOON:009:1,2017-11-03T09:18:00Z,27.8398,-97.0727,1.704,1111122 
TCOON,ioos:station:TCOON:009:1,2017-11-03T10:18:00Z,27.8398,-97.0727,1.637,1111122 
TCOON,ioos:station:TCOON:009:1,2017-11-03T11:18:00Z,27.8398,-97.0727,1.595,1111122 
TCOON,ioos:station:TCOON:009:1,2017-11-03T12:18:00Z,27.8398,-97.0727,1.562,1111122 
TCOON,ioos:station:TCOON:009:1,2017-11-03T13:18:00Z,27.8398,-97.0727,1.526,1111122 
TCOON,ioos:station:TCOON:009:1,2017-11-03T14:18:00Z,27.8398,-97.0727,1.519,1111122 
TCOON,ioos:station:TCOON:009:1,2017-11-03T15:18:00Z,27.8398,-97.0727,1.572,1111122 
TCOON,ioos:station:TCOON:009:1,2017-11-03T16:18:00Z,27.8398,-97.0727,1.639,1111122 
TCOON,ioos:station:TCOON:009:1,2017-11-03T17:18:00Z,27.8398,-97.0727,1.707,1111122 
TCOON,ioos:station:TCOON:009:1,2017-11-03T18:18:00Z,27.8398,-97.0727,1.671,1111122 
TCOON,ioos:station:TCOON:009:1,2017-11-03T19:18:00Z,27.8398,-97.0727,1.824,1111122 
TCOON,ioos:station:TCOON:009:1,2017-11-03T20:18:00Z,27.8398,-97.0727,1.794,1111122 
TCOON,ioos:station:TCOON:009:1,2017-11-03T21:18:00Z,27.8398,-97.0727,1.797,1111122 
TCOON,ioos:station:TCOON:009:1,2017-11-03T22:18:00Z,27.8398,-97.0727,1.791,1111122 
TCOON,ioos:station:TCOON:009:1,2017-11-03T23:24:00Z,27.8398,-97.0727,1.796,1111122 
TCOON,ioos:station:TCOON:009:1,2017-11-04T00:24:00Z,27.8398,-97.0727,1.793,1111122 
TCOON,ioos:station:TCOON:009:1,2017-11-04T01:30:00Z,27.8398,-97.0727,1.787,1111122 
TCOON,ioos:station:TCOON:009:1,2017-11-04T02:18:00Z,27.8398,-97.0727,1.785,1111122 
TCOON,ioos:station:TCOON:009:1,2017-11-04T03:18:00Z,27.8398,-97.0727,1.778,1111122 
TCOON,ioos:station:TCOON:009:1,2017-11-04T04:18:00Z,27.8398,-97.0727,1.766,1111122 
TCOON,ioos:station:TCOON:009:1,2017-11-04T05:18:00Z,27.8398,-97.0727,1.77,1111122 
TCOON,ioos:station:TCOON:009:1,2017-11-04T06:18:00Z,27.8398,-97.0727,1.79,1111122 
TCOON,ioos:station:TCOON:009:1,2017-11-04T07:18:00Z,27.8398,-97.0727,1.821,1111122 
TCOON,ioos:station:TCOON:009:1,2017-11-04T08:18:00Z,27.8398,-97.0727,1.786,1111122 
TCOON,ioos:station:TCOON:009:1,2017-11-04T09:18:00Z,27.8398,-97.0727,1.738,1111122 
TCOON,ioos:station:TCOON:009:1,2017-11-04T10:18:00Z,27.8398,-97.0727,1.675,1111122 
TCOON,ioos:station:TCOON:009:1,2017-11-04T11:18:00Z,27.8398,-97.0727,1.611,1111122 
TCOON,ioos:station:TCOON:009:1,2017-11-04T12:18:00Z,27.8398,-97.0727,1.555,1111122 
TCOON,ioos:station:TCOON:009:1,2017-11-04T13:18:00Z,27.8398,-97.0727,1.513,1111122 
TCOON,ioos:station:TCOON:009:1,2017-11-04T14:18:00Z,27.8398,-97.0727,1.54,1111122 
TCOON,ioos:station:TCOON:009:1,2017-11-04T15:18:00Z,27.8398,-97.0727,1.549,1111122 
TCOON,ioos:station:TCOON:009:1,2017-11-04T16:18:00Z,27.8398,-97.0727,1.568,1111122 
TCOON,ioos:station:TCOON:009:1,2017-11-04T17:18:00Z,27.8398,-97.0727,1.635,1111122 
TCOON,ioos:station:TCOON:009:1,2017-11-04T18:18:00Z,27.8398,-97.0727,1.728,1111122 
TCOON,ioos:station:TCOON:009:1,2017-11-04T19:18:00Z,27.8398,-97.0727,1.799,1111122 
TCOON,ioos:station:TCOON:009:1,2017-11-04T20:18:00Z,27.8398,-97.0727,1.821,1111122 
TCOON,ioos:station:TCOON:009:1,2017-11-04T21:18:00Z,27.8398,-97.0727,1.843,1111122 
TCOON,ioos:station:TCOON:009:1,2017-11-04T22:18:00Z,27.8398,-97.0727,1.849,1111122 
TCOON,ioos:station:TCOON:009:1,2017-11-04T23:18:00Z,27.8398,-97.0727,1.846,1111122 
TCOON,ioos:station:TCOON:009:1,2017-11-05T00:18:00Z,27.8398,-97.0727,1.846,1111122 
TCOON,ioos:station:TCOON:009:1,2017-11-05T01:18:00Z,27.8398,-97.0727,1.863,1111122 
TCOON,ioos:station:TCOON:009:1,2017-11-05T02:18:00Z,27.8398,-97.0727,1.868,1111122 
TCOON,ioos:station:TCOON:009:1,2017-11-05T03:18:00Z,27.8398,-97.0727,1.849,1111122 
TCOON,ioos:station:TCOON:009:1,2017-11-05T04:18:00Z,27.8398,-97.0727,1.848,1111122 
TCOON,ioos:station:TCOON:009:1,2017-11-05T05:18:00Z,27.8398,-97.0727,1.839,1111122 
TCOON,ioos:station:TCOON:009:1,2017-11-05T06:18:00Z,27.8398,-97.0727,1.889,1111122 
TCOON,ioos:station:TCOON:009:1,2017-11-05T07:18:00Z,27.8398,-97.0727,1.871,1111122 
TCOON,ioos:station:TCOON:009:1,2017-11-05T08:18:00Z,27.8398,-97.0727,1.893,1111122 
TCOON,ioos:station:TCOON:009:1,2017-11-05T09:18:00Z,27.8398,-97.0727,1.862,1111122 
TCOON,ioos:station:TCOON:009:1,2017-11-05T10:18:00Z,27.8398,-97.0727,1.779,1111122 
TCOON,ioos:station:TCOON:009:1,2017-11-05T11:24:00Z,27.8398,-97.0727,1.637,1111122 
TCOON,ioos:station:TCOON:009:1,2017-11-05T12:18:00Z,27.8398,-97.0727,1.651,1111122 
TCOON,ioos:station:TCOON:009:1,2017-11-05T13:18:00Z,27.8398,-97.0727,1.577,1111122 
TCOON,ioos:station:TCOON:009:1,2017-11-05T14:18:00Z,27.8398,-97.0727,1.525,1111122 
TCOON,ioos:station:TCOON:009:1,2017-11-05T15:18:00Z,27.8398,-97.0727,1.53,1111122 
TCOON,ioos:station:TCOON:009:1,2017-11-05T16:18:00Z,27.8398,-97.0727,1.546,1111122 
TCOON,ioos:station:TCOON:009:1,2017-11-05T17:18:00Z,27.8398,-97.0727,1.577,1111122 
TCOON,ioos:station:TCOON:009:1,2017-11-05T18:18:00Z,27.8398,-97.0727,1.668,1111122 
TCOON,ioos:station:TCOON:009:1,2017-11-05T19:18:00Z,27.8398,-97.0727,1.77,1111122 
TCOON,ioos:station:TCOON:009:1,2017-11-05T20:18:00Z,27.8398,-97.0727,1.842,1111122 
TCOON,ioos:station:TCOON:009:1,2017-11-05T21:18:00Z,27.8398,-97.0727,1.879,1111122 
TCOON,ioos:station:TCOON:009:1,2017-11-05T22:18:00Z,27.8398,-97.0727,1.887,1111122 
TCOON,ioos:station:TCOON:009:1,2017-11-05T23:18:00Z,27.8398,-97.0727,1.89,1111122 
TCOON,ioos:station:TCOON:009:1,2017-11-06T00:18:00Z,27.8398,-97.0727,1.879,1111122 
TCOON,ioos:station:TCOON:009:1,2017-11-06T01:18:00Z,27.8398,-97.0727,1.892,1111122 
TCOON,ioos:station:TCOON:009:1,2017-11-06T02:18:00Z,27.8398,-97.0727,1.894,1111122 
TCOON,ioos:station:TCOON:009:1,2017-11-06T03:18:00Z,27.8398,-97.0727,1.89,1111122 
TCOON,ioos:station:TCOON:009:1,2017-11-06T04:18:00Z,27.8398,-97.0727,1.893,1111122 
TCOON,ioos:station:TCOON:009:1,2017-11-06T05:18:00Z,27.8398,-97.0727,1.887,1111122 
TCOON,ioos:station:TCOON:009:1,2017-11-06T06:18:00Z,27.8398,-97.0727,1.871,1111122 
TCOON,ioos:station:TCOON:009:1,2017-11-06T07:18:00Z,27.8398,-97.0727,1.861,1111122 
TCOON,ioos:station:TCOON:009:1,2017-11-06T08:18:00Z,27.8398,-97.0727,1.846,1111122 
TCOON,ioos:station:TCOON:009:1,2017-11-06T09:18:00Z,27.8398,-97.0727,1.823,1111122 
TCOON,ioos:station:TCOON:009:1,2017-11-06T10:18:00Z,27.8398,-97.0727,1.747,1111122 
TCOON,ioos:station:TCOON:009:1,2017-11-06T11:18:00Z,27.8398,-97.0727,1.675,1111122 
TCOON,ioos:station:TCOON:009:1,2017-11-06T12:18:00Z,27.8398,-97.0727,1.6,1111122 
TCOON,ioos:station:TCOON:009:1,2017-11-06T13:18:00Z,27.8398,-97.0727,1.532,1111122 
TCOON,ioos:station:TCOON:009:1,2017-11-06T14:18:00Z,27.8398,-97.0727,1.486,1111122 
TCOON,ioos:station:TCOON:009:1,2017-11-06T15:18:00Z,27.8398,-97.0727,1.339,1111122 
TCOON,ioos:station:TCOON:009:1,2017-11-06T16:18:00Z,27.8398,-97.0727,1.412,1111122 
TCOON,ioos:station:TCOON:009:1,2017-11-06T17:18:00Z,27.8398,-97.0727,1.429,1111122 
TCOON,ioos:station:TCOON:009:1,2017-11-06T18:18:00Z,27.8398,-97.0727,1.5,1111122 
TCOON,ioos:station:TCOON:009:1,2017-11-06T19:18:00Z,27.8398,-97.0727,1.574,1111122 
TCOON,ioos:station:TCOON:009:1,2017-11-06T20:18:00Z,27.8398,-97.0727,1.672,1111122 
TCOON,ioos:station:TCOON:009:1,2017-11-06T21:18:00Z,27.8398,-97.0727,1.748,1111122 
TCOON,ioos:station:TCOON:009:1,2017-11-06T22:18:00Z,27.8398,-97.0727,1.801,1111122 
TCOON,ioos:station:TCOON:009:1,2017-11-06T23:18:00Z,27.8398,-97.0727,1.807,1111122 
TCOON,ioos:station:TCOON:009:1,2017-11-07T00:18:00Z,27.8398,-97.0727,1.803,1111122 
TCOON,ioos:station:TCOON:009:1,2017-11-07T01:18:00Z,27.8398,-97.0727,1.804,1111122 
TCOON,ioos:station:TCOON:009:1,2017-11-07T02:18:00Z,27.8398,-97.0727,1.808,1111122 
TCOON,ioos:station:TCOON:009:1,2017-11-07T03:18:00Z,27.8398,-97.0727,1.816,1111122 
TCOON,ioos:station:TCOON:009:1,2017-11-07T04:18:00Z,27.8398,-97.0727,1.823,1111122 
TCOON,ioos:station:TCOON:009:1,2017-11-07T05:18:00Z,27.8398,-97.0727,1.818,1111122 
TCOON,ioos:station:TCOON:009:1,2017-11-07T06:18:00Z,27.8398,-97.0727,1.818,1111122 
TCOON,ioos:station:TCOON:009:1,2017-11-07T07:18:00Z,27.8398,-97.0727,1.813,1111122 
TCOON,ioos:station:TCOON:009:1,2017-11-07T08:18:00Z,27.8398,-97.0727,1.808,1111122 
TCOON,ioos:station:TCOON:009:1,2017-11-07T09:18:00Z,27.8398,-97.0727,1.787,1111122 
TCOON,ioos:station:TCOON:009:1,2017-11-07T10:18:00Z,27.8398,-97.0727,1.772,1111122 
TCOON,ioos:station:TCOON:009:1,2017-11-07T11:18:00Z,27.8398,-97.0727,1.725,1111122 
TCOON,ioos:station:TCOON:009:1,2017-11-07T12:18:00Z,27.8398,-97.0727,1.66,1111122 
TCOON,ioos:station:TCOON:009:1,2017-11-07T13:18:00Z,27.8398,-97.0727,1.567,1111122 
TCOON,ioos:station:TCOON:009:1,2017-11-07T14:18:00Z,27.8398,-97.0727,1.519,1111122 
TCOON,ioos:station:TCOON:009:1,2017-11-07T16:24:00Z,27.8398,-97.0727,1.438,1111122 
TCOON,ioos:station:TCOON:009:1,2017-11-07T17:18:00Z,27.8398,-97.0727,1.442,1111122 
TCOON,ioos:station:TCOON:009:1,2017-11-07T18:48:00Z,27.8398,-97.0727,1.503,1111122 
TCOON,ioos:station:TCOON:009:1,2017-11-07T19:18:00Z,27.8398,-97.0727,1.545,1111122 
TCOON,ioos:station:TCOON:009:1,2017-11-07T20:18:00Z,27.8398,-97.0727,1.615,1111122 
TCOON,ioos:station:TCOON:009:1,2017-11-07T21:24:00Z,27.8398,-97.0727,1.751,1111122 
TCOON,ioos:station:TCOON:009:1,2017-11-07T22:36:00Z,27.8398,-97.0727,1.785,1111122 
TCOON,ioos:station:TCOON:009:1,2017-11-07T23:18:00Z,27.8398,-97.0727,1.794,1111122 
TCOON,ioos:station:TCOON:009:1,2017-11-08T00:18:00Z,27.8398,-97.0727,1.813,1111122 
TCOON,ioos:station:TCOON:009:1,2017-11-08T01:18:00Z,27.8398,-97.0727,1.818,1111122 
TCOON,ioos:station:TCOON:009:1,2017-11-08T02:18:00Z,27.8398,-97.0727,1.84,1111122 
TCOON,ioos:station:TCOON:009:1,2017-11-08T04:06:00Z,27.8398,-97.0727,1.856,1111122 
TCOON,ioos:station:TCOON:009:1,2017-11-08T05:30:00Z,27.8398,-97.0727,1.866,1111122 
TCOON,ioos:station:TCOON:009:1,2017-11-08T06:30:00Z,27.8398,-97.0727,1.856,1111122 
TCOON,ioos:station:TCOON:009:1,2017-11-08T07:30:00Z,27.8398,-97.0727,1.852,1111122 
TCOON,ioos:station:TCOON:009:1,2017-11-08T08:24:00Z,27.8398,-97.0727,1.86,1111122 
TCOON,ioos:station:TCOON:009:1,2017-11-08T09:30:00Z,27.8398,-97.0727,1.842,1111122 
TCOON,ioos:station:TCOON:009:1,2017-11-08T10:18:00Z,27.8398,-97.0727,1.825,1111122 
TCOON,ioos:station:TCOON:009:1,2017-11-08T11:18:00Z,27.8398,-97.0727,1.789,1111122 
TCOON,ioos:station:TCOON:009:1,2017-11-08T12:18:00Z,27.8398,-97.0727,1.737,1111122 
TCOON,ioos:station:TCOON:009:1,2017-11-08T13:18:00Z,27.8398,-97.0727,1.678,1111122 
TCOON,ioos:station:TCOON:009:1,2017-11-08T14:18:00Z,27.8398,-97.0727,1.65,1111122 
TCOON,ioos:station:TCOON:009:1,2017-11-08T15:18:00Z,27.8398,-97.0727,1.564,1111122 
TCOON,ioos:station:TCOON:009:1,2017-11-08T16:18:00Z,27.8398,-97.0727,1.518,1111122 
TCOON,ioos:station:TCOON:009:1,2017-11-08T17:18:00Z,27.8398,-97.0727,1.479,1111122 
TCOON,ioos:station:TCOON:009:1,2017-11-08T18:18:00Z,27.8398,-97.0727,1.45,1111122 
TCOON,ioos:station:TCOON:009:1,2017-11-08T19:18:00Z,27.8398,-97.0727,1.51,1111122 
TCOON,ioos:station:TCOON:009:1,2017-11-08T20:18:00Z,27.8398,-97.0727,1.542,1111122 
TCOON,ioos:station:TCOON:009:1,2017-11-08T21:18:00Z,27.8398,-97.0727,1.622,1111122 
TCOON,ioos:station:TCOON:009:1,2017-11-08T22:18:00Z,27.8398,-97.0727,1.693,1111122 
TCOON,ioos:station:TCOON:009:1,2017-11-08T23:18:00Z,27.8398,-97.0727,1.736,1111122 
TCOON,ioos:station:TCOON:009:1,2017-11-09T00:18:00Z,27.8398,-97.0727,1.845,1111122 
TCOON,ioos:station:TCOON:009:1,2017-11-09T01:18:00Z,27.8398,-97.0727,1.842,1111122 
TCOON,ioos:station:TCOON:009:1,2017-11-09T02:18:00Z,27.8398,-97.0727,1.847,1111122 
TCOON,ioos:station:TCOON:009:1,2017-11-09T03:18:00Z,27.8398,-97.0727,1.863,1111122 
TCOON,ioos:station:TCOON:009:1,2017-11-09T04:18:00Z,27.8398,-97.0727,1.894,1111122 
TCOON,ioos:station:TCOON:009:1,2017-11-09T05:18:00Z,27.8398,-97.0727,1.897,1111122 
TCOON,ioos:station:TCOON:009:1,2017-11-09T06:18:00Z,27.8398,-97.0727,1.905,1111122 
TCOON,ioos:station:TCOON:009:1,2017-11-09T07:18:00Z,27.8398,-97.0727,1.894,1111122 
TCOON,ioos:station:TCOON:009:1,2017-11-09T08:18:00Z,27.8398,-97.0727,1.918,1111122 
TCOON,ioos:station:TCOON:009:1,2017-11-09T09:18:00Z,27.8398,-97.0727,1.899,1111122 
TCOON,ioos:station:TCOON:009:1,2017-11-09T10:18:00Z,27.8398,-97.0727,1.876,1111122 
TCOON,ioos:station:TCOON:009:1,2017-11-09T11:18:00Z,27.8398,-97.0727,1.854,1111122 
TCOON,ioos:station:TCOON:009:1,2017-11-09T12:18:00Z,27.8398,-97.0727,1.823,1111122 
TCOON,ioos:station:TCOON:009:1,2017-11-09T13:18:00Z,27.8398,-97.0727,1.797,1111122 
TCOON,ioos:station:TCOON:009:1,2017-11-09T14:18:00Z,27.8398,-97.0727,1.748,1111122 
TCOON,ioos:station:TCOON:009:1,2017-11-09T15:18:00Z,27.8398,-97.0727,1.707,1111122 
TCOON,ioos:station:TCOON:009:1,2017-11-09T16:18:00Z,27.8398,-97.0727,1.651,1111122 
TCOON,ioos:station:TCOON:009:1,2017-11-09T17:18:00Z,27.8398,-97.0727,1.597,1111122 
TCOON,ioos:station:TCOON:009:1,2017-11-09T18:18:00Z,27.8398,-97.0727,1.556,1111122 
TCOON,ioos:station:TCOON:009:1,2017-11-09T19:18:00Z,27.8398,-97.0727,1.589,1111122 
TCOON,ioos:station:TCOON:009:1,2017-11-09T20:18:00Z,27.8398,-97.0727,1.58,1111122 
TCOON,ioos:station:TCOON:009:1,2017-11-09T21:18:00Z,27.8398,-97.0727,1.599,1111122 
TCOON,ioos:station:TCOON:009:1,2017-11-09T22:18:00Z,27.8398,-97.0727,1.668,1111122 
TCOON,ioos:station:TCOON:009:1,2017-11-09T23:18:00Z,27.8398,-97.0727,1.745,1111122 
TCOON,ioos:station:TCOON:009:1,2017-11-10T00:18:00Z,27.8398,-97.0727,1.807,1111122 
TCOON,ioos:station:TCOON:009:1,2017-11-10T01:18:00Z,27.8398,-97.0727,1.836,1111122 
TCOON,ioos:station:TCOON:009:1,2017-11-10T02:18:00Z,27.8398,-97.0727,1.862,1111122 
TCOON,ioos:station:TCOON:009:1,2017-11-10T03:18:00Z,27.8398,-97.0727,1.875,1111122 
TCOON,ioos:station:TCOON:009:1,2017-11-10T04:18:00Z,27.8398,-97.0727,1.878,1111122 
TCOON,ioos:station:TCOON:009:1,2017-11-10T05:18:00Z,27.8398,-97.0727,1.887,1111122 
TCOON,ioos:station:TCOON:009:1,2017-11-10T06:18:00Z,27.8398,-97.0727,1.909,1111122 
TCOON,ioos:station:TCOON:009:1,2017-11-10T07:18:00Z,27.8398,-97.0727,1.904,1111122 
TCOON,ioos:station:TCOON:009:1,2017-11-10T08:18:00Z,27.8398,-97.0727,1.894,1111122 
TCOON,ioos:station:TCOON:009:1,2017-11-10T09:18:00Z,27.8398,-97.0727,1.888,1111122 
TCOON,ioos:station:TCOON:009:1,2017-11-10T10:18:00Z,27.8398,-97.0727,1.881,1111122 
TCOON,ioos:station:TCOON:009:1,2017-11-10T11:18:00Z,27.8398,-97.0727,1.893,1111122 
TCOON,ioos:station:TCOON:009:1,2017-11-10T12:18:00Z,27.8398,-97.0727,1.894,1111122 
TCOON,ioos:station:TCOON:009:1,2017-11-10T13:18:00Z,27.8398,-97.0727,1.875,1111122 
TCOON,ioos:station:TCOON:009:1,2017-11-10T14:18:00Z,27.8398,-97.0727,1.792,1111122 
TCOON,ioos:station:TCOON:009:1,2017-11-10T15:18:00Z,27.8398,-97.0727,1.815,1111122 
TCOON,ioos:station:TCOON:009:1,2017-11-10T16:18:00Z,27.8398,-97.0727,1.76,1111122 
TCOON,ioos:station:TCOON:009:1,2017-11-10T17:18:00Z,27.8398,-97.0727,1.719,1111122 
TCOON,ioos:station:TCOON:009:1,2017-11-10T18:18:00Z,27.8398,-97.0727,1.687,1111122 
TCOON,ioos:station:TCOON:009:1,2017-11-10T19:18:00Z,27.8398,-97.0727,1.672,1111122 
TCOON,ioos:station:TCOON:009:1,2017-11-10T20:18:00Z,27.8398,-97.0727,1.642,1111122 
TCOON,ioos:station:TCOON:009:1,2017-11-10T21:18:00Z,27.8398,-97.0727,1.676,1111122 
TCOON,ioos:station:TCOON:009:1,2017-11-10T22:18:00Z,27.8398,-97.0727,1.696,1111122 
TCOON,ioos:station:TCOON:009:1,2017-11-10T23:18:00Z,27.8398,-97.0727,1.736,1111122 
TCOON,ioos:station:TCOON:009:1,2017-11-11T00:18:00Z,27.8398,-97.0727,1.799,1111122 
TCOON,ioos:station:TCOON:009:1,2017-11-11T01:18:00Z,27.8398,-97.0727,1.84,1111122 
TCOON,ioos:station:TCOON:009:1,2017-11-11T02:18:00Z,27.8398,-97.0727,1.912,1111122 
TCOON,ioos:station:TCOON:009:1,2017-11-11T03:18:00Z,27.8398,-97.0727,1.888,1111122 
TCOON,ioos:station:TCOON:009:1,2017-11-11T04:18:00Z,27.8398,-97.0727,1.918,1111122 
TCOON,ioos:station:TCOON:009:1,2017-11-11T05:18:00Z,27.8398,-97.0727,1.932,1111122 
TCOON,ioos:station:TCOON:009:1,2017-11-11T06:18:00Z,27.8398,-97.0727,1.936,1111122 
TCOON,ioos:station:TCOON:009:1,2017-11-11T07:18:00Z,27.8398,-97.0727,1.932,1111122 
TCOON,ioos:station:TCOON:009:1,2017-11-11T08:18:00Z,27.8398,-97.0727,1.945,1111122 
TCOON,ioos:station:TCOON:009:1,2017-11-11T09:18:00Z,27.8398,-97.0727,1.93,1111122 
TCOON,ioos:station:TCOON:009:1,2017-11-11T10:18:00Z,27.8398,-97.0727,1.93,1111122 
TCOON,ioos:station:TCOON:009:1,2017-11-11T11:18:00Z,27.8398,-97.0727,1.929,1111122 
TCOON,ioos:station:TCOON:009:1,2017-11-11T12:18:00Z,27.8398,-97.0727,1.931,1111122 
TCOON,ioos:station:TCOON:009:1,2017-11-11T13:18:00Z,27.8398,-97.0727,1.933,1111122 
TCOON,ioos:station:TCOON:009:1,2017-11-11T14:18:00Z,27.8398,-97.0727,1.928,1111122 
TCOON,ioos:station:TCOON:009:1,2017-11-11T15:18:00Z,27.8398,-97.0727,1.928,1111122 
TCOON,ioos:station:TCOON:009:1,2017-11-11T16:18:00Z,27.8398,-97.0727,1.889,1111122 
TCOON,ioos:station:TCOON:009:1,2017-11-11T17:18:00Z,27.8398,-97.0727,1.877,1111122 
TCOON,ioos:station:TCOON:009:1,2017-11-11T18:18:00Z,27.8398,-97.0727,1.823,1111122 
TCOON,ioos:station:TCOON:009:1,2017-11-11T19:18:00Z,27.8398,-97.0727,1.787,1111122 
TCOON,ioos:station:TCOON:009:1,2017-11-11T20:18:00Z,27.8398,-97.0727,1.769,1111122 
TCOON,ioos:station:TCOON:009:1,2017-11-11T21:18:00Z,27.8398,-97.0727,1.764,1111122 
TCOON,ioos:station:TCOON:009:1,2017-11-11T22:18:00Z,27.8398,-97.0727,1.788,1111122 
TCOON,ioos:station:TCOON:009:1,2017-11-11T23:18:00Z,27.8398,-97.0727,1.815,1111122 
TCOON,ioos:station:TCOON:009:1,2017-11-12T00:18:00Z,27.8398,-97.0727,1.753,1111122 
TCOON,ioos:station:TCOON:009:1,2017-11-12T01:18:00Z,27.8398,-97.0727,1.886,1111122 
TCOON,ioos:station:TCOON:009:1,2017-11-12T02:18:00Z,27.8398,-97.0727,1.935,1111122 
TCOON,ioos:station:TCOON:009:1,2017-11-12T03:18:00Z,27.8398,-97.0727,1.956,1111122 
TCOON,ioos:station:TCOON:009:1,2017-11-12T04:18:00Z,27.8398,-97.0727,1.957,1111122 
TCOON,ioos:station:TCOON:009:1,2017-11-12T05:18:00Z,27.8398,-97.0727,1.966,1111122 
TCOON,ioos:station:TCOON:009:1,2017-11-12T06:18:00Z,27.8398,-97.0727,1.964,1111122 
TCOON,ioos:station:TCOON:009:1,2017-11-12T07:18:00Z,27.8398,-97.0727,1.952,1111122 
TCOON,ioos:station:TCOON:009:1,2017-11-12T08:18:00Z,27.8398,-97.0727,1.937,1111122 
TCOON,ioos:station:TCOON:009:1,2017-11-12T09:18:00Z,27.8398,-97.0727,1.934,1111122 
TCOON,ioos:station:TCOON:009:1,2017-11-12T10:18:00Z,27.8398,-97.0727,1.922,1111122 
TCOON,ioos:station:TCOON:009:1,2017-11-12T11:18:00Z,27.8398,-97.0727,1.892,1111122 
TCOON,ioos:station:TCOON:009:1,2017-11-12T12:18:00Z,27.8398,-97.0727,1.863,1111122 
TCOON,ioos:station:TCOON:009:1,2017-11-12T13:18:00Z,27.8398,-97.0727,1.867,1111122 
TCOON,ioos:station:TCOON:009:1,2017-11-12T14:18:00Z,27.8398,-97.0727,1.87,1111122 
TCOON,ioos:station:TCOON:009:1,2017-11-12T15:18:00Z,27.8398,-97.0727,1.879,1111122 
TCOON,ioos:station:TCOON:009:1,2017-11-12T16:18:00Z,27.8398,-97.0727,1.875,1111122 
TCOON,ioos:station:TCOON:009:1,2017-11-12T17:18:00Z,27.8398,-97.0727,1.876,1111122 
TCOON,ioos:station:TCOON:009:1,2017-11-12T18:18:00Z,27.8398,-97.0727,1.838,1111122 
TCOON,ioos:station:TCOON:009:1,2017-11-12T19:18:00Z,27.8398,-97.0727,1.842,1111122 
TCOON,ioos:station:TCOON:009:1,2017-11-12T20:18:00Z,27.8398,-97.0727,1.81,1111122 
TCOON,ioos:station:TCOON:009:1,2017-11-12T21:18:00Z,27.8398,-97.0727,1.798,1111122 
TCOON,ioos:station:TCOON:009:1,2017-11-12T22:18:00Z,27.8398,-97.0727,1.795,1111122 